Location: Gwatt
(46.7204°N, 7.6223°E)
Time: 13:28:34
(UTC+00:00)

S-56A Canister/Altair - Pass Details

Date: 25 January 2021
Orbit: 632 x 2501 km, 38.9° (Epoch: 28 February)

Event Time Altitude Azimuth Distance (km) Brightness Sun altitude
Rises 04:33:50 0° 260° (W) 2,915 - -25.2°
Reaches altitude 10° 04:36:12 10° 249° (WSW) 2,039 - -24.8°
Exits shadow 04:39:52 31° 195° (SSW) 1,229 8.4 -24.2°
Maximum altitude 04:40:13 31° 186° (S) 1,233 8.5 -24.1°
Drops below altitude 10° 04:45:03 10° 126° (SE) 2,481 10.9 -23.3°
Sets 04:48:14 0° 116° (ESE) 3,672 12.2 -22.7°
